Location: Catstown
(52.4386°N, 7.2633°W)
Time: 01:29:35
(UTC+00:00)

Cosmos 2297 Rocket - Pass Details

Date: 18 September 2020
Orbit: 838 x 845 km, 71.0° (Epoch: 30 October)

Event Time Altitude Azimuth Distance (km) Brightness Sun altitude
Rises 19:00:54 0° 239° (WSW) 3,389 6.2 -4.6°
Reaches altitude 10° 19:03:31 10° 248° (WSW) 2,459 5.7 -5.0°
Maximum altitude 19:08:43 37° 315° (NW) 1,293 3.8 -5.8°
Drops below altitude 10° 19:13:58 10° 22° (NNE) 2,475 4.5 -6.6°
Sets 19:16:38 0° 31° (NNE) 3,414 5.2 -7.0°
